UAE8VR OMDB-VRMM

Flight info

Callsign UAE8VR
Flight time 3h 33m
Altitude 31000
Route ANVIX L223 TARDI N629 GIDAN P570 KITAL L894 DONSA/N0471F330 L894 ELBET ELBET1A
Aircraft B739/M-SDE2E3FGHIRWXY/LB1

Departure

Time 2026-05-08 16:34
Airport Dubai International Airport (OMDB)

Arrival

Time 2026-05-08 20:07
Airport Velana International Airport (VRMM)
Time Latitude Longitude Altitude Speed Heading
2026-05-08 15:47 25.24424 55.36859 30 ft 0 kts 77°
2026-05-08 16:22 25.24421 55.36844 31 ft 3 kts 77°
2026-05-08 16:22 25.24416 55.36822 31 ft 3 kts 77°
2026-05-08 16:23 25.24411 55.36800 31 ft 3 kts 78°
2026-05-08 16:23 25.24408 55.36777 26 ft 3 kts 90°
2026-05-08 16:23 25.24410 55.36754 28 ft 3 kts 106°
2026-05-08 16:23 25.24418 55.36734 31 ft 3 kts 131°
2026-05-08 16:24 25.24432 55.36722 31 ft 3 kts 173°
2026-05-08 16:24 25.24436 55.36722 31 ft 0 kts 178°
2026-05-08 16:26 25.24434 55.36722 31 ft 1 kts 178°
2026-05-08 16:26 25.24416 55.36722 31 ft 4 kts 178°
2026-05-08 16:27 25.24384 55.36732 31 ft 6 kts 152°
2026-05-08 16:27 25.24352 55.36771 29 ft 8 kts 124°
2026-05-08 16:27 25.24318 55.36830 30 ft 10 kts 121°
2026-05-08 16:27 25.24276 55.36906 30 ft 13 kts 122°
2026-05-08 16:28 25.24226 55.36994 31 ft 15 kts 122°
2026-05-08 16:28 25.24168 55.37096 31 ft 17 kts 122°
2026-05-08 16:28 25.24106 55.37206 29 ft 17 kts 122°
2026-05-08 16:28 25.24044 55.37317 30 ft 17 kts 122°
2026-05-08 16:29 25.23983 55.37427 30 ft 17 kts 117°
2026-05-08 16:29 25.23978 55.37552 30 ft 17 kts 66°
2026-05-08 16:29 25.24060 55.37637 30 ft 16 kts 32°
2026-05-08 16:29 25.24156 55.37701 29 ft 16 kts 31°
2026-05-08 16:30 25.24251 55.37766 30 ft 16 kts 32°
2026-05-08 16:30 25.24346 55.37832 26 ft 16 kts 33°
2026-05-08 16:30 25.24438 55.37902 29 ft 16 kts 34°
2026-05-08 16:30 25.24530 55.37972 29 ft 16 kts 34°
2026-05-08 16:31 25.24614 55.38035 28 ft 10 kts 32°
2026-05-08 16:31 25.24636 55.38050 28 ft 0 kts 31°
2026-05-08 16:31 25.24640 55.38053 28 ft 2 kts 31°
2026-05-08 16:32 25.24661 55.38067 29 ft 6 kts 31°
2026-05-08 16:32 25.24711 55.38101 30 ft 9 kts 31°
2026-05-08 16:32 25.24761 55.38110 31 ft 6 kts 323°
2026-05-08 16:32 25.24784 55.38067 30 ft 12 kts 300°
2026-05-08 16:33 25.24934 55.37796 30 ft 77 kts 301°
2026-05-08 16:33 25.25338 55.37068 30 ft 143 kts 301°
2026-05-08 16:33 25.25954 55.35951 33 ft 194 kts 300°
2026-05-08 16:33 25.26656 55.34635 465 ft 200 kts 300°
2026-05-08 16:34 25.27369 55.33323 1068 ft 199 kts 300°
2026-05-08 16:34 25.28092 55.32038 1762 ft 194 kts 301°
2026-05-08 16:34 25.28792 55.30786 2353 ft 192 kts 300°
2026-05-08 16:34 25.29221 55.29406 2656 ft 192 kts 269°
2026-05-08 16:35 25.28909 55.27955 2986 ft 197 kts 248°
2026-05-08 16:35 25.28302 55.26592 3342 ft 201 kts 246°
2026-05-08 16:35 25.27663 55.25192 3658 ft 207 kts 245°
2026-05-08 16:35 25.27023 55.23750 4022 ft 211 kts 246°
2026-05-08 16:36 25.26606 55.22762 4323 ft 209 kts 247°
2026-05-08 16:36 25.26010 55.21327 4783 ft 209 kts 248°
2026-05-08 16:36 25.25410 55.19828 5039 ft 221 kts 247°
2026-05-08 16:36 25.24747 55.18207 5142 ft 240 kts 246°
2026-05-08 16:37 25.23718 55.16700 5183 ft 261 kts 214°
2026-05-08 16:37 25.21962 55.16088 5409 ft 276 kts 178°
2026-05-08 16:37 25.20115 55.16670 5829 ft 283 kts 145°
2026-05-08 16:37 25.18769 55.18237 6345 ft 284 kts 120°
2026-05-08 16:38 25.17808 55.20134 6897 ft 284 kts 119°
2026-05-08 16:38 25.16809 55.22052 7356 ft 291 kts 121°
2026-05-08 16:38 25.15766 55.23984 7920 ft 294 kts 122°
2026-05-08 16:38 25.14714 55.25922 8553 ft 295 kts 122°
2026-05-08 16:39 25.13658 55.27867 9178 ft 297 kts 122°
2026-05-08 16:39 25.12588 55.29836 9722 ft 301 kts 123°
2026-05-08 16:39 25.11511 55.31820 10242 ft 302 kts 123°
2026-05-08 16:39 25.10447 55.33826 10846 ft 304 kts 119°
2026-05-08 16:40 25.09550 55.35939 11502 ft 305 kts 115°
2026-05-08 16:40 25.08702 55.38094 12203 ft 307 kts 116°
2026-05-08 16:40 25.07836 55.40255 12898 ft 309 kts 116°
2026-05-08 16:40 25.06962 55.42428 13556 ft 314 kts 116°
2026-05-08 16:41 25.06082 55.44710 13775 ft 334 kts 115°
2026-05-08 16:41 25.05154 55.47147 13933 ft 355 kts 115°
2026-05-08 16:41 25.04167 55.49728 14071 ft 376 kts 115°
2026-05-08 16:42 25.02022 55.55235 14751 ft 400 kts 117°
2026-05-08 16:42 25.00676 55.57949 15262 ft 406 kts 123°
2026-05-08 16:42 24.99201 55.60601 15952 ft 407 kts 123°
2026-05-08 16:42 24.97729 55.63280 16580 ft 410 kts 122°
2026-05-08 16:43 24.96256 55.65995 17131 ft 415 kts 121°
2026-05-08 16:43 24.94769 55.68746 17664 ft 421 kts 121°
2026-05-08 16:43 24.93194 55.71466 18270 ft 422 kts 126°
2026-05-08 16:43 24.91469 55.74089 18818 ft 423 kts 128°
2026-05-08 16:44 24.89690 55.76701 19251 ft 429 kts 128°
2026-05-08 16:44 24.87895 55.79347 19689 ft 434 kts 128°
2026-05-08 16:44 24.86103 55.82028 20234 ft 436 kts 128°
2026-05-08 16:44 24.84307 55.84733 20745 ft 439 kts 128°
2026-05-08 16:45 24.82491 55.87447 21233 ft 442 kts 128°
2026-05-08 16:45 24.80641 55.90175 21654 ft 446 kts 128°
2026-05-08 16:45 24.78755 55.92903 22083 ft 450 kts 130°
2026-05-08 16:45 24.76665 55.95468 22576 ft 451 kts 137°
2026-05-08 16:46 24.74353 55.97813 23044 ft 453 kts 140°
2026-05-08 16:46 24.72015 56.00152 23476 ft 456 kts 139°
2026-05-08 16:46 24.69676 56.02533 23837 ft 460 kts 139°
2026-05-08 16:46 24.67336 56.04944 24180 ft 463 kts 139°
2026-05-08 16:47 24.64977 56.07379 24522 ft 466 kts 139°
2026-05-08 16:47 24.62641 56.09789 24851 ft 468 kts 139°
2026-05-08 16:47 24.60253 56.12247 24832 ft 470 kts 139°
2026-05-08 16:47 24.57873 56.14696 24845 ft 468 kts 138°
2026-05-08 16:48 24.55611 56.17272 24844 ft 469 kts 133°
2026-05-08 16:48 24.53485 56.20000 24855 ft 470 kts 132°
2026-05-08 16:48 24.51370 56.22735 24860 ft 471 kts 132°
2026-05-08 16:48 24.49245 56.25477 24858 ft 472 kts 132°
2026-05-08 16:49 24.47111 56.28214 24843 ft 472 kts 132°
2026-05-08 16:49 24.44971 56.30947 24817 ft 472 kts 133°
2026-05-08 16:49 24.42859 56.33632 24793 ft 472 kts 133°
2026-05-08 16:49 24.40711 56.36361 24790 ft 472 kts 132°
2026-05-08 16:50 24.38568 56.39082 24771 ft 471 kts 133°
2026-05-08 16:50 24.36425 56.41800 24759 ft 471 kts 133°
2026-05-08 16:50 24.34284 56.44517 24756 ft 471 kts 133°
2026-05-08 16:50 24.32129 56.47248 25015 ft 475 kts 133°
2026-05-08 16:51 24.29970 56.50005 25399 ft 477 kts 131°
2026-05-08 16:51 24.27951 56.52906 25744 ft 481 kts 128°
2026-05-08 16:51 24.25985 56.55886 26068 ft 484 kts 128°
2026-05-08 16:51 24.24011 56.58895 26392 ft 487 kts 127°
2026-05-08 16:52 24.22026 56.61915 26701 ft 490 kts 128°
2026-05-08 16:52 24.20020 56.64954 27022 ft 493 kts 128°
2026-05-08 16:52 24.17998 56.68003 27339 ft 496 kts 128°
2026-05-08 16:52 24.15962 56.71066 27653 ft 499 kts 128°
2026-05-08 16:53 24.11851 56.77238 28252 ft 504 kts 128°
2026-05-08 16:53 24.09776 56.80351 28537 ft 507 kts 128°
2026-05-08 16:53 24.07720 56.83436 28804 ft 509 kts 128°
2026-05-08 16:54 24.05628 56.86572 29060 ft 511 kts 128°
2026-05-08 16:54 24.03528 56.89717 29350 ft 513 kts 128°
2026-05-08 16:54 24.01419 56.92870 29627 ft 514 kts 128°
2026-05-08 16:54 23.99302 56.96031 29914 ft 515 kts 128°
2026-05-08 16:55 23.97188 56.99186 30258 ft 513 kts 128°
2026-05-08 16:55 23.95084 57.02326 30624 ft 512 kts 128°
2026-05-08 16:55 23.92985 57.05458 30980 ft 510 kts 128°
2026-05-08 16:55 23.90890 57.08582 31310 ft 509 kts 128°
2026-05-08 16:56 23.88800 57.11696 31644 ft 508 kts 128°
2026-05-08 16:56 23.86710 57.14806 31954 ft 508 kts 128°
2026-05-08 16:56 23.84622 57.17912 32294 ft 505 kts 128°
2026-05-08 16:56 23.82549 57.20995 32666 ft 504 kts 128°
2026-05-08 16:57 23.78371 57.27203 32784 ft 510 kts 128°
2026-05-08 16:57 23.74147 57.33476 32817 ft 515 kts 128°
2026-05-08 16:58 23.69837 57.39760 32804 ft 519 kts 130°
2026-05-08 16:58 23.65308 57.45928 32814 ft 522 kts 130°
2026-05-08 16:59 23.60737 57.52125 32806 ft 525 kts 130°
2026-05-08 16:59 23.56185 57.58365 32827 ft 527 kts 130°
2026-05-08 17:00 23.51621 57.64634 32815 ft 529 kts 130°
2026-05-08 17:00 23.47038 57.70908 32828 ft 529 kts 130°
2026-05-08 17:01 23.42444 57.77179 32822 ft 529 kts 130°
2026-05-08 17:01 23.37855 57.83438 32824 ft 529 kts 130°
2026-05-08 17:02 23.33267 57.89691 32834 ft 528 kts 130°
2026-05-08 17:02 23.28684 57.95932 32809 ft 527 kts 130°
2026-05-08 17:03 23.24129 58.02184 32817 ft 527 kts 127°
2026-05-08 17:03 23.19959 58.08739 32807 ft 527 kts 126°
2026-05-08 17:04 23.15876 58.15286 32808 ft 526 kts 126°
2026-05-08 17:04 23.11740 58.21844 32814 ft 526 kts 126°
2026-05-08 17:05 23.07423 58.28654 32820 ft 526 kts 126°
2026-05-08 17:05 23.03084 58.35036 32807 ft 524 kts 134°
2026-05-08 17:06 22.97729 58.40277 32814 ft 521 kts 145°
2026-05-08 17:07 22.86177 58.47922 32807 ft 520 kts 150°
2026-05-08 17:07 22.79985 58.51989 32804 ft 520 kts 150°
2026-05-08 17:08 22.73808 58.56087 32818 ft 521 kts 150°
2026-05-08 17:08 22.67623 58.60181 32811 ft 521 kts 150°
2026-05-08 17:09 22.61427 58.64270 32813 ft 522 kts 150°
2026-05-08 17:09 22.55227 58.68358 32808 ft 522 kts 150°
2026-05-08 17:10 22.49023 58.72446 32814 ft 522 kts 150°
2026-05-08 17:10 22.42858 58.76504 32813 ft 522 kts 150°
2026-05-08 17:11 22.35839 58.81121 32812 ft 522 kts 150°
2026-05-08 17:11 22.29633 58.85199 32830 ft 522 kts 150°
2026-05-08 17:12 22.23423 58.89274 32818 ft 522 kts 150°
2026-05-08 17:13 22.11787 58.96893 32830 ft 521 kts 150°
2026-05-08 17:13 22.05559 59.00967 32811 ft 521 kts 150°
2026-05-08 17:14 21.99365 59.05015 32813 ft 521 kts 150°
2026-05-08 17:14 21.93168 59.09061 32818 ft 520 kts 150°
2026-05-08 17:15 21.86977 59.13099 32820 ft 520 kts 150°
2026-05-08 17:15 21.80784 59.17134 32815 ft 520 kts 150°
2026-05-08 17:16 21.74595 59.21162 32813 ft 520 kts 150°
2026-05-08 17:16 21.68408 59.25186 32812 ft 519 kts 150°
2026-05-08 17:17 21.62225 59.29203 32810 ft 519 kts 150°
2026-05-08 17:17 21.56041 59.33216 32810 ft 519 kts 150°
2026-05-08 17:18 21.49861 59.37223 32811 ft 519 kts 150°
2026-05-08 17:18 21.43678 59.41229 32815 ft 519 kts 150°
2026-05-08 17:19 21.37497 59.45231 32811 ft 519 kts 150°
2026-05-08 17:19 21.31318 59.49229 32819 ft 518 kts 151°
2026-05-08 17:20 21.25147 59.53217 32811 ft 518 kts 151°
2026-05-08 17:20 21.18971 59.57200 32823 ft 518 kts 150°
2026-05-08 17:21 21.12800 59.61176 32819 ft 518 kts 150°
2026-05-08 17:21 21.06660 59.65130 32823 ft 518 kts 150°
2026-05-08 17:22 21.00475 59.69108 32832 ft 519 kts 150°
2026-05-08 17:22 20.94287 59.73082 32830 ft 519 kts 151°
2026-05-08 17:23 20.88100 59.77048 32831 ft 519 kts 151°
2026-05-08 17:23 20.81908 59.81016 32826 ft 519 kts 150°
2026-05-08 17:24 20.75719 59.84978 32838 ft 518 kts 151°
2026-05-08 17:24 20.69533 59.88937 32834 ft 518 kts 150°
2026-05-08 17:25 20.63342 59.92893 32842 ft 519 kts 150°
2026-05-08 17:25 20.57147 59.96848 32836 ft 519 kts 150°
2026-05-08 17:26 20.50949 60.00801 32848 ft 519 kts 150°
2026-05-08 17:26 20.44753 60.04751 32843 ft 519 kts 151°
2026-05-08 17:27 20.38557 60.08696 32847 ft 519 kts 150°
2026-05-08 17:27 20.32361 60.12637 32847 ft 519 kts 150°
2026-05-08 17:28 20.26159 60.16579 32848 ft 519 kts 150°
2026-05-08 17:28 20.19959 60.20514 32857 ft 519 kts 150°
2026-05-08 17:29 20.13755 60.24451 32847 ft 519 kts 150°
2026-05-08 17:29 20.07550 60.28388 32857 ft 519 kts 150°
2026-05-08 17:30 20.01729 60.32940 32848 ft 521 kts 139°
2026-05-08 17:30 19.96367 60.38119 32862 ft 521 kts 139°
2026-05-08 17:31 19.90998 60.43298 32859 ft 521 kts 139°
2026-05-08 17:31 19.85606 60.48445 32863 ft 521 kts 139°
2026-05-08 17:32 19.80193 60.53580 32863 ft 522 kts 139°
2026-05-08 17:32 19.74774 60.58712 32866 ft 522 kts 139°
2026-05-08 17:33 19.69390 60.63811 32863 ft 522 kts 139°
2026-05-08 17:33 19.63968 60.68941 32869 ft 523 kts 139°
2026-05-08 17:34 19.58537 60.74076 32868 ft 523 kts 139°
2026-05-08 17:34 19.53108 60.79204 32868 ft 523 kts 139°
2026-05-08 17:35 19.47672 60.84334 32871 ft 523 kts 139°
2026-05-08 17:35 19.42238 60.89457 32871 ft 523 kts 139°
2026-05-08 17:36 19.36797 60.94582 32870 ft 523 kts 139°
2026-05-08 17:36 19.31357 60.99701 32872 ft 523 kts 139°
2026-05-08 17:37 19.25912 61.04820 32868 ft 523 kts 139°
2026-05-08 17:37 19.20472 61.09930 32872 ft 523 kts 139°
2026-05-08 17:38 19.15023 61.15044 32876 ft 523 kts 139°
2026-05-08 17:38 19.09581 61.20146 32877 ft 523 kts 139°
2026-05-08 17:39 19.04131 61.25251 32879 ft 523 kts 139°
2026-05-08 17:39 18.98680 61.30352 32880 ft 523 kts 139°
2026-05-08 17:40 18.93234 61.35444 32879 ft 523 kts 139°
2026-05-08 17:40 18.87783 61.40536 32883 ft 523 kts 139°
2026-05-08 17:41 18.82330 61.45626 32882 ft 523 kts 139°
2026-05-08 17:41 18.76873 61.50714 32882 ft 523 kts 139°
2026-05-08 17:42 18.71417 61.55797 32883 ft 523 kts 139°
2026-05-08 17:42 18.65960 61.60876 32885 ft 523 kts 139°
2026-05-08 17:43 18.60501 61.65953 32885 ft 523 kts 139°
2026-05-08 17:43 18.55038 61.71029 32890 ft 523 kts 139°
2026-05-08 17:44 18.49576 61.76099 32887 ft 523 kts 139°
2026-05-08 17:44 18.44116 61.81163 32890 ft 523 kts 139°
2026-05-08 17:45 18.38653 61.86226 32890 ft 523 kts 139°
2026-05-08 17:45 18.34115 61.90428 32891 ft 523 kts 139°
2026-05-08 17:46 18.28656 61.95477 32889 ft 523 kts 139°
2026-05-08 17:46 18.23193 62.00527 32892 ft 523 kts 139°
2026-05-08 17:47 18.17728 62.05575 32892 ft 523 kts 139°
2026-05-08 17:47 18.12258 62.10623 32894 ft 523 kts 139°
2026-05-08 17:48 18.06786 62.15668 32898 ft 523 kts 139°
2026-05-08 17:48 18.01310 62.20712 32896 ft 523 kts 139°
2026-05-08 17:49 17.95835 62.25751 32897 ft 524 kts 139°
2026-05-08 17:49 17.90355 62.30791 32900 ft 524 kts 139°
2026-05-08 17:50 17.84870 62.35830 32899 ft 524 kts 139°
2026-05-08 17:50 17.79386 62.40865 32900 ft 524 kts 139°
2026-05-08 17:51 17.73933 62.45867 32900 ft 524 kts 139°
2026-05-08 17:51 17.68445 62.50896 32896 ft 524 kts 139°
2026-05-08 17:52 17.62951 62.55927 32898 ft 525 kts 139°
2026-05-08 17:53 17.54700 62.63475 32899 ft 525 kts 139°
2026-05-08 17:53 17.49196 62.68505 32900 ft 525 kts 139°
2026-05-08 17:54 17.43688 62.73534 32900 ft 525 kts 139°
2026-05-08 17:54 17.38182 62.78557 32902 ft 525 kts 139°
2026-05-08 17:55 17.32668 62.83583 32901 ft 526 kts 139°
2026-05-08 17:55 17.27151 62.88608 32904 ft 526 kts 139°
2026-05-08 17:56 17.21634 62.93629 32905 ft 526 kts 139°
2026-05-08 17:56 17.16114 62.98649 32904 ft 526 kts 139°
2026-05-08 17:57 17.10591 63.03667 32905 ft 526 kts 139°
2026-05-08 17:57 17.05067 63.08684 32906 ft 526 kts 139°
2026-05-08 17:58 16.99532 63.13690 32909 ft 526 kts 140°
2026-05-08 17:58 16.93905 63.18593 32907 ft 526 kts 140°
2026-05-08 17:59 16.88254 63.23449 32907 ft 526 kts 140°
2026-05-08 17:59 16.82608 63.28318 32906 ft 526 kts 140°
2026-05-08 18:00 16.76972 63.33196 32907 ft 526 kts 140°
2026-05-08 18:00 16.68528 63.40507 32909 ft 526 kts 140°
2026-05-08 18:01 16.62895 63.45377 32909 ft 526 kts 140°
2026-05-08 18:01 16.57259 63.50246 32906 ft 526 kts 140°
2026-05-08 18:02 16.52577 63.54287 32909 ft 526 kts 140°
2026-05-08 18:02 16.45983 63.59974 32908 ft 526 kts 140°
2026-05-08 18:03 16.40341 63.64835 32905 ft 527 kts 140°
2026-05-08 18:03 16.34692 63.69699 32911 ft 527 kts 140°
2026-05-08 18:04 16.29043 63.74560 32907 ft 527 kts 140°
2026-05-08 18:04 16.23391 63.79420 32905 ft 527 kts 140°
2026-05-08 18:05 16.17737 63.84276 32907 ft 527 kts 140°
2026-05-08 18:05 16.12077 63.89135 32907 ft 528 kts 140°
2026-05-08 18:06 16.06413 63.93993 32911 ft 528 kts 140°
2026-05-08 18:06 16.00789 63.98813 32906 ft 528 kts 140°
2026-05-08 18:07 15.95125 64.03665 32908 ft 528 kts 140°
2026-05-08 18:07 15.89452 64.08520 32912 ft 528 kts 141°
2026-05-08 18:08 15.83780 64.13370 32908 ft 528 kts 140°
2026-05-08 18:08 15.78108 64.18217 32911 ft 528 kts 140°
2026-05-08 18:09 15.72432 64.23063 32912 ft 528 kts 141°
2026-05-08 18:09 15.66760 64.27904 32912 ft 529 kts 141°
2026-05-08 18:10 15.61076 64.32749 32911 ft 529 kts 141°
2026-05-08 18:10 15.55398 64.37587 32915 ft 528 kts 141°
2026-05-08 18:11 15.49708 64.42431 33077 ft 528 kts 141°
2026-05-08 18:11 15.46876 64.44841 33261 ft 527 kts 141°
2026-05-08 18:11 15.44044 64.47250 33369 ft 527 kts 141°
2026-05-08 18:12 15.38364 64.52078 33621 ft 527 kts 141°
2026-05-08 18:12 15.35532 64.54484 33775 ft 527 kts 141°
2026-05-08 18:12 15.32704 64.56887 33941 ft 525 kts 141°
2026-05-08 18:13 15.29877 64.59287 34085 ft 524 kts 141°
2026-05-08 18:13 15.27060 64.61678 34223 ft 524 kts 141°
2026-05-08 18:13 15.24244 64.64067 34425 ft 522 kts 141°
2026-05-08 18:13 15.21444 64.66442 34607 ft 520 kts 141°
2026-05-08 18:14 15.18648 64.68813 34797 ft 518 kts 141°
2026-05-08 18:14 15.15860 64.71176 34836 ft 518 kts 141°
2026-05-08 18:14 15.10341 64.75850 34922 ft 514 kts 141°
2026-05-08 18:15 15.04812 64.80531 34913 ft 513 kts 141°
2026-05-08 18:15 14.99286 64.85205 34920 ft 513 kts 141°
2026-05-08 18:16 14.93755 64.89881 34919 ft 513 kts 141°
2026-05-08 18:16 14.88223 64.94554 34915 ft 514 kts 141°
2026-05-08 18:17 14.82686 64.99229 34909 ft 514 kts 141°
2026-05-08 18:17 14.77139 65.03908 34919 ft 515 kts 141°
2026-05-08 18:18 14.71584 65.08592 34918 ft 516 kts 141°
2026-05-08 18:18 14.66024 65.13277 34918 ft 516 kts 141°
2026-05-08 18:19 14.60456 65.17966 34917 ft 516 kts 141°
2026-05-08 18:19 14.54891 65.22645 34910 ft 516 kts 141°
2026-05-08 18:20 14.49322 65.27321 34912 ft 516 kts 141°
2026-05-08 18:20 14.43751 65.31996 34918 ft 517 kts 141°
2026-05-08 18:21 14.38171 65.36678 34915 ft 517 kts 141°
2026-05-08 18:21 14.32598 65.41352 34919 ft 516 kts 141°
2026-05-08 18:22 14.27028 65.46019 34913 ft 516 kts 141°
2026-05-08 18:22 14.21489 65.50657 34910 ft 517 kts 141°
2026-05-08 18:23 14.15911 65.55326 34919 ft 517 kts 141°
2026-05-08 18:23 14.10330 65.59993 34918 ft 517 kts 141°
2026-05-08 18:24 14.04745 65.64662 34910 ft 517 kts 141°
2026-05-08 18:24 13.99167 65.69320 34911 ft 516 kts 141°
2026-05-08 18:25 13.93588 65.73977 34913 ft 516 kts 141°
2026-05-08 18:25 13.88005 65.78634 34912 ft 516 kts 141°
2026-05-08 18:26 13.82429 65.83283 34912 ft 516 kts 141°
2026-05-08 18:26 13.76846 65.87934 34909 ft 516 kts 141°
2026-05-08 18:27 13.72207 65.91797 34910 ft 516 kts 141°
2026-05-08 18:27 13.65677 65.97230 34910 ft 516 kts 141°
2026-05-08 18:28 13.60098 66.01870 34909 ft 516 kts 141°
2026-05-08 18:28 13.54516 66.06508 34908 ft 516 kts 140°
2026-05-08 18:29 13.48939 66.11140 34911 ft 515 kts 141°
2026-05-08 18:29 13.43358 66.15772 34909 ft 516 kts 141°
2026-05-08 18:30 13.37779 66.20400 34911 ft 516 kts 140°
2026-05-08 18:30 13.32195 66.25028 34912 ft 516 kts 140°
2026-05-08 18:31 13.26612 66.29654 34908 ft 515 kts 140°
2026-05-08 18:31 13.21045 66.34263 34905 ft 514 kts 140°
2026-05-08 18:32 13.16420 66.38091 34906 ft 514 kts 140°
2026-05-08 18:32 13.10852 66.42696 34907 ft 513 kts 140°
2026-05-08 18:33 13.05290 66.47293 34909 ft 513 kts 140°
2026-05-08 18:33 12.98830 66.52629 34901 ft 513 kts 140°
2026-05-08 18:34 12.94180 66.56468 34906 ft 513 kts 140°
2026-05-08 18:34 12.88617 66.61058 34908 ft 512 kts 140°
2026-05-08 18:35 12.83079 66.65624 34900 ft 511 kts 140°
2026-05-08 18:35 12.77537 66.70192 34899 ft 510 kts 140°
2026-05-08 18:36 12.72039 66.74720 34903 ft 510 kts 140°
2026-05-08 18:36 12.66474 66.79301 34904 ft 510 kts 140°
2026-05-08 18:37 12.60978 66.83823 34900 ft 510 kts 140°
2026-05-08 18:37 12.55453 66.88365 34902 ft 510 kts 140°
2026-05-08 18:38 12.49913 66.92918 34907 ft 510 kts 140°
2026-05-08 18:38 12.44397 66.97448 34903 ft 509 kts 140°
2026-05-08 18:39 12.38873 67.01983 34900 ft 508 kts 140°
2026-05-08 18:39 12.33370 67.06498 34901 ft 507 kts 140°
2026-05-08 18:40 12.27856 67.11019 34899 ft 507 kts 140°
2026-05-08 18:40 12.22346 67.15534 34898 ft 507 kts 140°
2026-05-08 18:41 12.16837 67.20047 34900 ft 507 kts 140°
2026-05-08 18:41 12.11329 67.24555 34903 ft 508 kts 140°
2026-05-08 18:42 12.05816 67.29067 34892 ft 508 kts 140°
2026-05-08 18:42 12.00305 67.33575 34894 ft 507 kts 140°
2026-05-08 18:43 11.94793 67.38080 34896 ft 507 kts 140°
2026-05-08 18:43 11.89283 67.42579 34896 ft 507 kts 140°
2026-05-08 18:44 11.83766 67.47082 34896 ft 507 kts 140°
2026-05-08 18:44 11.78255 67.51579 34897 ft 507 kts 140°
2026-05-08 18:45 11.72773 67.56052 34894 ft 507 kts 140°
2026-05-08 18:45 11.67266 67.60542 34893 ft 507 kts 140°
2026-05-08 18:46 11.61756 67.65033 34893 ft 507 kts 140°
2026-05-08 18:46 11.56246 67.69521 34891 ft 507 kts 140°
2026-05-08 18:47 11.50737 67.74005 34896 ft 507 kts 140°
2026-05-08 18:47 11.45226 67.78489 34893 ft 507 kts 140°
2026-05-08 18:48 11.39717 67.82970 34887 ft 507 kts 140°
2026-05-08 18:48 11.34208 67.87447 34888 ft 507 kts 140°
2026-05-08 18:49 11.28695 67.91926 34888 ft 507 kts 140°
2026-05-08 18:49 11.23181 67.96404 34885 ft 507 kts 140°
2026-05-08 18:50 11.17665 68.00880 34893 ft 507 kts 140°
2026-05-08 18:50 11.12185 68.05325 34889 ft 507 kts 140°
2026-05-08 18:51 11.06670 68.09797 34891 ft 507 kts 140°
2026-05-08 18:51 11.01154 68.14267 34890 ft 507 kts 140°
2026-05-08 18:52 10.95639 68.18734 34893 ft 507 kts 140°
2026-05-08 18:52 10.90127 68.23197 34885 ft 507 kts 140°
2026-05-08 18:53 10.84610 68.27661 34885 ft 506 kts 140°
2026-05-08 18:53 10.79096 68.32121 34885 ft 506 kts 140°
2026-05-08 18:54 10.73584 68.36577 34886 ft 506 kts 140°
2026-05-08 18:54 10.68067 68.41034 34884 ft 506 kts 140°
2026-05-08 18:55 10.59793 68.47716 34886 ft 506 kts 140°
2026-05-08 18:56 10.54275 68.52170 34887 ft 506 kts 140°
2026-05-08 18:56 10.48763 68.56616 34887 ft 506 kts 140°
2026-05-08 18:57 10.43257 68.61056 34882 ft 505 kts 140°
2026-05-08 18:57 10.37758 68.65488 34881 ft 504 kts 140°
2026-05-08 18:58 10.32261 68.69916 34882 ft 504 kts 140°
2026-05-08 18:58 10.26770 68.74337 34882 ft 504 kts 140°
2026-05-08 18:59 10.21275 68.78760 34884 ft 504 kts 141°
2026-05-08 18:59 10.15780 68.83181 34882 ft 504 kts 141°
2026-05-08 19:00 10.10279 68.87603 34880 ft 505 kts 141°
2026-05-08 19:00 10.04776 68.92027 34883 ft 505 kts 141°
2026-05-08 19:01 9.99270 68.96451 34885 ft 505 kts 141°
2026-05-08 19:01 9.93798 69.00845 34879 ft 505 kts 141°
2026-05-08 19:02 9.88282 69.05273 34883 ft 506 kts 141°
2026-05-08 19:02 9.82759 69.09705 34879 ft 507 kts 141°
2026-05-08 19:03 9.77229 69.14142 34880 ft 507 kts 141°
2026-05-08 19:03 9.71694 69.18578 34881 ft 508 kts 141°
2026-05-08 19:04 9.66145 69.23017 34882 ft 508 kts 140°
2026-05-08 19:04 9.60603 69.27448 34878 ft 507 kts 140°
2026-05-08 19:05 9.55064 69.31877 34882 ft 507 kts 141°
2026-05-08 19:05 9.49529 69.36302 34878 ft 507 kts 141°
2026-05-08 19:06 9.43995 69.40726 34880 ft 507 kts 141°
2026-05-08 19:06 9.38461 69.45145 34878 ft 506 kts 141°
2026-05-08 19:07 9.32930 69.49562 34880 ft 506 kts 141°
2026-05-08 19:07 9.27396 69.53979 34879 ft 506 kts 141°
2026-05-08 19:08 9.21871 69.58386 34878 ft 506 kts 141°
2026-05-08 19:08 9.16343 69.62795 34874 ft 505 kts 141°
2026-05-08 19:09 9.10819 69.67198 34873 ft 505 kts 141°
2026-05-08 19:09 9.05309 69.71589 34873 ft 504 kts 141°
2026-05-08 19:10 8.99796 69.75980 34874 ft 504 kts 141°
2026-05-08 19:10 8.94329 69.80333 34872 ft 504 kts 141°
2026-05-08 19:11 8.88783 69.84746 34875 ft 504 kts 141°
2026-05-08 19:11 8.83307 69.89103 34859 ft 504 kts 141°
2026-05-08 19:12 8.77767 69.93509 34872 ft 504 kts 141°
2026-05-08 19:12 8.72296 69.97858 34874 ft 503 kts 141°
2026-05-08 19:13 8.66801 70.02224 34869 ft 503 kts 141°
2026-05-08 19:13 8.61290 70.06602 34855 ft 503 kts 141°
2026-05-08 19:14 8.55789 70.10969 34871 ft 503 kts 141°
2026-05-08 19:14 8.50283 70.15339 34861 ft 503 kts 140°
2026-05-08 19:15 8.44780 70.19706 34875 ft 503 kts 141°
2026-05-08 19:15 8.41546 70.22272 34860 ft 503 kts 141°
2026-05-08 19:16 8.36490 70.26281 34877 ft 503 kts 141°
2026-05-08 19:16 8.30984 70.30645 34863 ft 503 kts 141°
2026-05-08 19:17 8.25475 70.35010 34864 ft 504 kts 141°
2026-05-08 19:17 8.19961 70.39378 34866 ft 504 kts 141°
2026-05-08 19:18 8.14446 70.43744 34865 ft 504 kts 141°
2026-05-08 19:18 8.08931 70.48110 34866 ft 504 kts 141°
2026-05-08 19:19 8.03418 70.52472 34868 ft 503 kts 141°
2026-05-08 19:19 7.97908 70.56831 34863 ft 503 kts 141°
2026-05-08 19:20 7.92396 70.61189 34863 ft 504 kts 141°
2026-05-08 19:20 7.86880 70.65549 34869 ft 504 kts 141°
2026-05-08 19:21 7.82296 70.69171 34866 ft 504 kts 141°
2026-05-08 19:21 7.76771 70.73536 34861 ft 504 kts 141°
2026-05-08 19:22 7.71245 70.77900 34863 ft 505 kts 141°
2026-05-08 19:22 7.65719 70.82262 34861 ft 505 kts 141°
2026-05-08 19:23 7.60188 70.86627 34863 ft 505 kts 141°
2026-05-08 19:23 7.54661 70.90989 34865 ft 505 kts 141°
2026-05-08 19:24 7.49133 70.95348 34862 ft 504 kts 141°
2026-05-08 19:24 7.43611 70.99694 34860 ft 504 kts 141°
2026-05-08 19:25 7.38088 71.04039 34866 ft 503 kts 141°
2026-05-08 19:25 7.32568 71.08381 34862 ft 503 kts 141°
2026-05-08 19:26 7.27052 71.12719 34861 ft 503 kts 141°
2026-05-08 19:26 7.21533 71.17059 34858 ft 503 kts 141°
2026-05-08 19:27 7.16020 71.21393 34859 ft 503 kts 141°
2026-05-08 19:27 7.10508 71.25725 34855 ft 503 kts 141°
2026-05-08 19:28 7.04998 71.30053 34858 ft 502 kts 141°
2026-05-08 19:28 6.99488 71.34381 34856 ft 502 kts 141°
2026-05-08 19:29 6.93978 71.38707 34856 ft 502 kts 141°
2026-05-08 19:29 6.88472 71.43028 34858 ft 502 kts 141°
2026-05-08 19:30 6.82962 71.47352 34858 ft 503 kts 141°
2026-05-08 19:30 6.77444 71.51680 34861 ft 503 kts 141°
2026-05-08 19:31 6.71922 71.56010 34868 ft 504 kts 141°
2026-05-08 19:31 6.66387 71.60349 34856 ft 504 kts 141°
2026-05-08 19:32 6.60851 71.64688 34859 ft 505 kts 141°
2026-05-08 19:32 6.55314 71.69027 34855 ft 505 kts 141°
2026-05-08 19:33 6.49771 71.73369 34859 ft 505 kts 141°
2026-05-08 19:33 6.44265 71.77681 34855 ft 505 kts 141°
2026-05-08 19:34 6.38716 71.82026 34861 ft 505 kts 141°
2026-05-08 19:34 6.32901 71.86001 34859 ft 507 kts 149°
2026-05-08 19:35 6.26664 71.89325 34863 ft 508 kts 151°
2026-05-08 19:35 6.20419 71.92638 34860 ft 508 kts 150°
2026-05-08 19:36 6.14232 71.96060 34866 ft 508 kts 149°
2026-05-08 19:36 6.08061 71.99523 34861 ft 508 kts 149°
2026-05-08 19:37 6.01889 72.02981 34859 ft 508 kts 149°
2026-05-08 19:37 5.95710 72.06434 34861 ft 508 kts 149°
2026-05-08 19:38 5.89531 72.09885 34861 ft 508 kts 149°
2026-05-08 19:38 5.83350 72.13335 34859 ft 508 kts 149°
2026-05-08 19:39 5.77169 72.16779 34871 ft 508 kts 149°
2026-05-08 19:39 5.70999 72.20218 34861 ft 507 kts 149°
2026-05-08 19:40 5.64838 72.23652 34859 ft 506 kts 149°
2026-05-08 19:40 5.58688 72.27080 34861 ft 505 kts 149°
2026-05-08 19:41 5.52549 72.30501 34860 ft 504 kts 149°
2026-05-08 19:41 5.46417 72.33916 34859 ft 501 kts 149°
2026-05-08 19:42 5.40424 72.37252 34854 ft 488 kts 150°
2026-05-08 19:42 5.34498 72.40552 34863 ft 487 kts 150°
2026-05-08 19:43 5.28567 72.43855 34800 ft 489 kts 150°
2026-05-08 19:43 5.25620 72.45496 34391 ft 492 kts 150°
2026-05-08 19:43 5.22642 72.47153 33809 ft 488 kts 150°
2026-05-08 19:43 5.19686 72.48798 33188 ft 484 kts 150°
2026-05-08 19:44 5.16755 72.50428 32567 ft 480 kts 150°
2026-05-08 19:44 5.13846 72.52045 31963 ft 477 kts 150°
2026-05-08 19:44 5.10955 72.53653 31373 ft 474 kts 150°
2026-05-08 19:44 5.08077 72.55254 30797 ft 472 kts 150°
2026-05-08 19:45 5.05213 72.56847 30231 ft 469 kts 149°
2026-05-08 19:45 5.02363 72.58431 29632 ft 467 kts 149°
2026-05-08 19:45 4.99530 72.60007 28992 ft 465 kts 149°
2026-05-08 19:45 4.96707 72.61577 28355 ft 462 kts 150°
2026-05-08 19:46 4.93903 72.63136 27734 ft 460 kts 150°
2026-05-08 19:46 4.91113 72.64687 27109 ft 458 kts 150°
2026-05-08 19:46 4.85568 72.67769 25947 ft 454 kts 150°
2026-05-08 19:47 4.82809 72.69302 25372 ft 452 kts 150°
2026-05-08 19:47 4.80065 72.70827 24807 ft 450 kts 150°
2026-05-08 19:47 4.77325 72.72349 24261 ft 449 kts 150°
2026-05-08 19:47 4.74598 72.73866 23725 ft 448 kts 150°
2026-05-08 19:48 4.71872 72.75381 23135 ft 447 kts 151°
2026-05-08 19:48 4.69173 72.76880 22514 ft 438 kts 151°
2026-05-08 19:48 4.66553 72.78334 22001 ft 423 kts 151°
2026-05-08 19:48 4.64019 72.79741 21481 ft 410 kts 151°
2026-05-08 19:49 4.61555 72.81110 20988 ft 401 kts 151°
2026-05-08 19:49 4.59123 72.82460 20525 ft 399 kts 151°
2026-05-08 19:49 4.56693 72.83809 20068 ft 398 kts 151°
2026-05-08 19:49 4.54275 72.85152 19607 ft 397 kts 151°
2026-05-08 19:50 4.51861 72.86492 19164 ft 396 kts 151°
2026-05-08 19:50 4.49456 72.87827 18718 ft 395 kts 151°
2026-05-08 19:50 4.47055 72.89159 18273 ft 394 kts 151°
2026-05-08 19:50 4.44667 72.90485 17787 ft 392 kts 151°
2026-05-08 19:51 4.42279 72.91810 17294 ft 391 kts 151°
2026-05-08 19:51 4.39902 72.93130 16800 ft 390 kts 151°
2026-05-08 19:51 4.37533 72.94444 16320 ft 389 kts 152°
2026-05-08 19:51 4.35169 72.95756 15839 ft 388 kts 152°
2026-05-08 19:52 4.32815 72.97062 15366 ft 387 kts 152°
2026-05-08 19:52 4.30465 72.98366 14915 ft 385 kts 152°
2026-05-08 19:52 4.28133 72.99660 14564 ft 380 kts 152°
2026-05-08 19:52 4.25859 73.00921 14199 ft 377 kts 152°
2026-05-08 19:53 4.23576 73.02188 13823 ft 374 kts 152°
2026-05-08 19:53 4.21303 73.03449 13414 ft 372 kts 152°
2026-05-08 19:53 4.19053 73.04696 12956 ft 366 kts 152°
2026-05-08 19:53 4.16860 73.05913 12441 ft 356 kts 152°
2026-05-08 19:54 4.14721 73.07099 11956 ft 346 kts 152°
2026-05-08 19:54 4.12651 73.08247 11572 ft 334 kts 152°
2026-05-08 19:54 4.10650 73.09356 11197 ft 324 kts 152°
2026-05-08 19:54 4.08707 73.10434 10825 ft 315 kts 152°
2026-05-08 19:55 4.06822 73.11479 10525 ft 303 kts 151°
2026-05-08 19:55 4.05011 73.12484 10338 ft 295 kts 151°
2026-05-08 19:55 4.03237 73.13467 10140 ft 289 kts 151°
2026-05-08 19:55 4.01479 73.14442 9956 ft 289 kts 151°
2026-05-08 19:56 3.99720 73.15416 9769 ft 289 kts 151°
2026-05-08 19:56 3.97959 73.16391 9584 ft 289 kts 151°
2026-05-08 19:56 3.96264 73.17443 9352 ft 285 kts 137°
2026-05-08 19:56 3.95152 73.19051 9129 ft 282 kts 108°
2026-05-08 19:57 3.94812 73.20963 8931 ft 280 kts 89°
2026-05-08 19:57 3.94827 73.22914 8704 ft 281 kts 88°
2026-05-08 19:57 3.94843 73.24879 8460 ft 283 kts 88°
2026-05-08 19:57 3.94852 73.26857 8195 ft 284 kts 88°
2026-05-08 19:58 3.94856 73.28828 7889 ft 282 kts 88°
2026-05-08 19:58 3.94859 73.30765 7584 ft 273 kts 88°
2026-05-08 19:58 3.94865 73.32628 7247 ft 262 kts 88°
2026-05-08 19:58 3.94870 73.34419 6910 ft 253 kts 88°
2026-05-08 19:59 3.94875 73.36137 6664 ft 241 kts 88°
2026-05-08 19:59 3.94879 73.37799 6289 ft 236 kts 88°
2026-05-08 19:59 3.94883 73.39424 5906 ft 230 kts 89°
2026-05-08 19:59 3.94887 73.41017 5618 ft 226 kts 88°
2026-05-08 20:00 3.94889 73.42552 5401 ft 217 kts 88°
2026-05-08 20:00 3.94890 73.44027 5091 ft 212 kts 88°
2026-05-08 20:00 3.94891 73.45474 4845 ft 204 kts 89°
2026-05-08 20:00 3.94892 73.46886 4652 ft 203 kts 88°
2026-05-08 20:01 3.94893 73.48298 4454 ft 203 kts 89°
2026-05-08 20:01 3.94895 73.49704 4286 ft 202 kts 89°
2026-05-08 20:01 3.94901 73.51103 4123 ft 200 kts 84°
2026-05-08 20:01 3.95341 73.52376 3861 ft 192 kts 45°
2026-05-08 20:02 3.96443 73.53000 3721 ft 184 kts
2026-05-08 20:02 3.97732 73.53060 3658 ft 189 kts 359°
2026-05-08 20:02 3.99064 73.53096 3525 ft 192 kts 358°
2026-05-08 20:02 4.00395 73.53108 3364 ft 189 kts 358°
2026-05-08 20:03 4.01690 73.53110 3127 ft 183 kts 357°
2026-05-08 20:03 4.02962 73.53109 2942 ft 185 kts 357°
2026-05-08 20:03 4.04259 73.53108 2680 ft 186 kts 357°
2026-05-08 20:03 4.05540 73.53107 2439 ft 183 kts 357°
2026-05-08 20:04 4.06806 73.53107 2206 ft 182 kts 356°
2026-05-08 20:04 4.08033 73.53107 1969 ft 169 kts 356°
2026-05-08 20:04 4.09165 73.53106 1776 ft 160 kts 356°
2026-05-08 20:04 4.10292 73.53104 1570 ft 164 kts 357°
2026-05-08 20:05 4.11421 73.53105 1349 ft 160 kts 356°
2026-05-08 20:05 4.12550 73.53102 1167 ft 164 kts 357°
2026-05-08 20:05 4.13675 73.53097 920 ft 161 kts 356°
2026-05-08 20:05 4.14795 73.53099 738 ft 161 kts 357°
2026-05-08 20:06 4.15916 73.53100 545 ft 164 kts 357°
2026-05-08 20:06 4.17049 73.53104 335 ft 159 kts 356°
2026-05-08 20:06 4.18156 73.53102 114 ft 160 kts 355°
2026-05-08 20:06 4.19253 73.53100 21 ft 149 kts 357°
2026-05-08 20:07 4.20114 73.53100 17 ft 92 kts
2026-05-08 20:07 4.20599 73.53100 17 ft 52 kts
2026-05-08 20:07 4.20823 73.53100 17 ft 49 kts 359°
2026-05-08 20:07 4.21107 73.53102 17 ft 30 kts
2026-05-08 20:08 4.21226 73.53094 17 ft 12 kts 333°
2026-05-08 20:08 4.21215 73.53005 17 ft 12 kts 212°
2026-05-08 20:08 4.21138 73.52978 17 ft 12 kts 194°
2026-05-08 20:08 4.21058 73.52958 17 ft 12 kts 194°
2026-05-08 20:09 4.21005 73.52944 17 ft 12 kts 194°
2026-05-08 20:09 4.20925 73.52923 17 ft 12 kts 195°
2026-05-08 20:09 4.20846 73.52901 17 ft 12 kts 196°
2026-05-08 20:09 4.20754 73.52890 17 ft 15 kts 181°
2026-05-08 20:10 4.20642 73.52891 17 ft 18 kts 179°
2026-05-08 20:10 4.20509 73.52893 17 ft 20 kts 179°
2026-05-08 20:10 4.20372 73.52895 17 ft 20 kts 179°
2026-05-08 20:10 4.20235 73.52897 17 ft 20 kts 179°
2026-05-08 20:11 4.20097 73.52899 17 ft 20 kts 179°
2026-05-08 20:11 4.19960 73.52902 17 ft 20 kts 179°
2026-05-08 20:11 4.19823 73.52904 17 ft 20 kts 179°
2026-05-08 20:11 4.19686 73.52906 17 ft 20 kts 178°
2026-05-08 20:12 4.19549 73.52910 17 ft 20 kts 179°
2026-05-08 20:12 4.19411 73.52911 17 ft 20 kts 179°
2026-05-08 20:12 4.19274 73.52913 17 ft 20 kts 179°
2026-05-08 20:12 4.19137 73.52916 17 ft 20 kts 179°
2026-05-08 20:13 4.19000 73.52918 17 ft 20 kts 179°
2026-05-08 20:13 4.18863 73.52920 17 ft 20 kts 179°
2026-05-08 20:13 4.18726 73.52923 17 ft 20 kts 179°
2026-05-08 20:13 4.18588 73.52925 17 ft 20 kts 179°
2026-05-08 20:14 4.18452 73.52927 17 ft 19 kts 179°
2026-05-08 20:14 4.18317 73.52929 17 ft 19 kts 180°
2026-05-08 20:14 4.18188 73.52931 17 ft 14 kts 179°
2026-05-08 20:14 4.18121 73.52917 17 ft 9 kts 229°
2026-05-08 20:15 4.18141 73.52868 17 ft 9 kts 337°
2026-05-08 20:15 4.18190 73.52863 17 ft 6 kts 359°
2026-05-08 20:15 4.18214 73.52852 17 ft 3 kts 305°
2026-05-08 20:15 4.18215 73.52831 17 ft 3 kts 265°
2026-05-08 20:16 4.18213 73.52806 17 ft 4 kts 268°
2026-05-08 20:16 4.18213 73.52784 17 ft 3 kts 269°
2026-05-08 20:16 4.18213 73.52777 17 ft 0 kts 269°
2026-05-08 20:16 4.18213 73.52776 17 ft 0 kts 269°